Weather History for Sydney Airport, New South Wales

Change the Weather History Date:

Tuesday, March 5, 2013

  Actual Average Record
Temperature  
Mean Temperature 75 °F -  
Max Temperature 82 °F 77 °F - ()
Min Temperature 68 °F 62 °F - ()
Cooling Degree Days 10    
Growing Degree Days 25 (Base 50)    
Moisture  
Dew Point 58 °F    
Average Humidity 54    
Maximum Humidity 69    
Minimum Humidity 28    
Precipitation  
Precipitation 0.00 in 0.19 in - ()
Sea Level Pressure  
Sea Level Pressure 30.14 in    
Wind  
Wind Speed 11 mph ()    
Max Wind Speed 20 mph    
Max Gust Speed -    
Visibility 7.8 miles    
Events      
T = Trace of Precipitation, MM = Missing Value Source: Averaged Metar Reports

Daily Weather History Graph

Daily Weather History Graph

Search for Another Location

Airport:

Trip Planner

Search our weather history database for the weather conditions in past years. The results will help you decide how hot, cold, wet, or windy it might be!

Date:

Astronomy

Mar. 05, 2013 Rise Set
Actual Time 6:46 AM EST 7:26 PM EST
Civil Twilight 6:20 AM EST 7:52 PM EST
Nautical Twilight 5:51 AM EST 8:21 PM EST
Astronomical Twilight 5:20 AM EST 8:52 PM EST
Moon No Moon Rise 2:07 PM EST (3/5)
Length of Visible Light 13h 31m
Length of Day
12h 40m
Waning Gibbous, 48% of the Moon is Illuminated
Mar 5
Waning Gibbous
Mar 12
New
Mar 20
First Quarter
Mar 27
Full
Apr 3
Last Quarter

Hourly Weather History & Observations

Time (EST) Temp. Heat Index Dew Point Humidity Pressure Visibility Wind Dir Wind Speed Gust Speed Precip Events Conditions
12:00 AM 70 °F - 54 °F 47% 30.18 in 19 mi East 9.2 mph - -   Partly Cloudy
12:00 AM 69.8 °F - 53.6 °F 56% 30.15 in 6.2 mi East 9.2 mph - N/A   Scattered Clouds
12:30 AM 69.8 °F - 55.4 °F 60% 30.15 in 6.2 mi East 8.1 mph - N/A   Scattered Clouds
1:00 AM 69.8 °F - 55.4 °F 60% 30.15 in 6.2 mi East 9.2 mph - N/A   Partly Cloudy
1:30 AM 69.8 °F - 57.2 °F 64% 30.15 in 6.2 mi ESE 8.1 mph - N/A   Partly Cloudy
2:00 AM 69 °F - 58 °F 59% 30.16 in - East 9.2 mph - -  
2:00 AM 69.8 °F - 57.2 °F 64% 30.15 in 6.2 mi East 9.2 mph - N/A   Partly Cloudy
2:30 AM 69.8 °F - 59.0 °F 68% 30.12 in 6.2 mi ENE 8.1 mph - N/A   Mostly Cloudy
3:00 AM 70 °F - 58 °F 57% 30.14 in 19 mi East 5.8 mph - -   Partly Cloudy
3:00 AM 69.8 °F - 57.2 °F 64% 30.12 in 6.2 mi East 5.8 mph - N/A   Mostly Cloudy
3:30 AM 71.6 °F - 57.2 °F 60% 30.12 in 6.2 mi East 6.9 mph - N/A   Scattered Clouds
4:00 AM 69.8 °F - 57.2 °F 64% 30.12 in 6.2 mi East 12.7 mph - N/A   Scattered Clouds
4:30 AM 69.8 °F - 59.0 °F 68% 30.12 in 6.2 mi East 11.5 mph - N/A   Scattered Clouds
5:00 AM 71 °F - 59 °F 56% 30.14 in - East 13.8 mph - -  
5:00 AM 71.6 °F - 59.0 °F 64% 30.12 in 6.2 mi East 13.8 mph - N/A   Mostly Cloudy
6:00 AM 72 °F - 60 °F 57% 30.14 in 19 mi East 13.8 mph - -   Mostly Cloudy
6:00 AM 71.6 °F - 60.8 °F 69% 30.12 in 6.2 mi East 13.8 mph - N/A   Mostly Cloudy
6:30 AM 71.6 °F - 60.8 °F 69% 30.12 in 6.2 mi East 10.4 mph - N/A   Mostly Cloudy
7:00 AM 71.6 °F - 60.8 °F 69% 30.15 in 6.2 mi East 11.5 mph - N/A   Mostly Cloudy
7:30 AM 73.4 °F - 60.8 °F 65% 30.15 in 6.2 mi East 15.0 mph - N/A   Mostly Cloudy
8:00 AM 73.4 °F - 60.8 °F 65% 30.15 in 6.2 mi East 12.7 mph - N/A   Mostly Cloudy
8:30 AM 73.4 °F - 59.0 °F 61% 30.15 in 6.2 mi East 17.3 mph - N/A   Mostly Cloudy
9:00 AM 73 °F - 62 °F 61% 30.18 in 16 mi East 15.0 mph - -   Partly Cloudy
9:00 AM 73.4 °F - 62.6 °F 69% 30.15 in 6.2 mi East 15.0 mph - N/A   Mostly Cloudy
9:30 AM 75.2 °F - 60.8 °F 61% 30.18 in 6.2 mi East 13.8 mph - N/A   Mostly Cloudy
10:00 AM 77.0 °F - 59.0 °F 54% 30.18 in 6.2 mi East 11.5 mph - N/A   Scattered Clouds
10:30 AM 75.2 °F - 59.0 °F 57% 30.18 in 6.2 mi East 13.8 mph - N/A   Scattered Clouds
11:00 AM 79 °F - 54 °F 32% 30.19 in - NE 15.0 mph - -  
11:00 AM 78.8 °F - 53.6 °F 42% 30.18 in 6.2 mi NE 15.0 mph - N/A   Scattered Clouds
11:30 AM 77.0 °F - 53.6 °F 44% 30.15 in 6.2 mi ENE 15.0 mph - N/A   Scattered Clouds
12:00 PM 80 °F - 53 °F 28% 30.17 in 19 mi ENE 12.7 mph - -   Partly Cloudy
12:00 PM 80.6 °F 80.3 °F 53.6 °F 39% 30.15 in 6.2 mi ENE 12.7 mph - N/A   Scattered Clouds
12:30 PM 82.4 °F - 51.8 °F 35% 30.15 in 6.2 mi NNE 13.8 mph - N/A   Scattered Clouds
1:00 PM 80.6 °F 80.5 °F 55.4 °F 42% 30.15 in 6.2 mi NE 17.3 mph - N/A   Scattered Clouds
1:30 PM 78.8 °F - 55.4 °F 44% 30.12 in 6.2 mi ENE 17.3 mph - N/A   Scattered Clouds
2:00 PM 80 °F - 56 °F 34% 30.14 in - ENE 19.6 mph - -  
2:00 PM 80.6 °F 80.8 °F 57.2 °F 45% 30.12 in 6.2 mi ENE 19.6 mph - N/A   Scattered Clouds
2:30 PM 78.8 °F - 55.4 °F 44% 30.12 in 6.2 mi ENE 17.3 mph - N/A   Scattered Clouds
3:00 PM 77 °F - 56 °F 39% 30.12 in 19 mi ENE 18.4 mph - -   Partly Cloudy
3:00 PM 77.0 °F - 57.2 °F 50% 30.12 in 6.2 mi ENE 18.4 mph - N/A   Scattered Clouds
3:30 PM 77.0 °F - 57.2 °F 50% 30.09 in 6.2 mi ENE 18.4 mph - N/A   Scattered Clouds
4:00 PM 78.8 °F - 55.4 °F 44% 30.09 in 6.2 mi ENE 19.6 mph - N/A   Scattered Clouds
4:30 PM 78.8 °F - 57.2 °F 47% 30.09 in 6.2 mi ENE 18.4 mph - N/A   Scattered Clouds
5:00 PM 78 °F - 58 °F 40% 30.12 in - ENE 16.1 mph - -  
5:00 PM 77.0 °F - 59.0 °F 54% 30.09 in 6.2 mi ENE 16.1 mph - N/A   Scattered Clouds
5:30 PM 78.8 °F - 57.2 °F 47% 30.09 in 6.2 mi ENE 16.1 mph - N/A   Scattered Clouds
6:00 PM 80 °F - 58 °F 36% 30.12 in 19 mi ENE 16.1 mph - -   Partly Cloudy
6:00 PM 80.6 °F 80.8 °F 57.2 °F 45% 30.09 in 6.2 mi ENE 16.1 mph - N/A   Scattered Clouds
6:30 PM 77.0 °F - 57.2 °F 50% 30.12 in 6.2 mi ENE 16.1 mph - N/A   Scattered Clouds
7:00 PM 75.2 °F - 60.8 °F 61% 30.12 in 6.2 mi NE 15.0 mph - N/A   Scattered Clouds
7:30 PM 75.2 °F - 60.8 °F 61% 30.12 in 6.2 mi NE 15.0 mph - N/A   Partly Cloudy
8:00 PM 75 °F - 60 °F 49% 30.14 in - NE 12.7 mph - -  
8:00 PM 75.2 °F - 59.0 °F 57% 30.12 in 6.2 mi NE 12.7 mph - N/A   Partly Cloudy
8:30 PM 73.4 °F - 60.8 °F 65% 30.12 in 6.2 mi NE 10.4 mph - N/A   Scattered Clouds
9:00 PM 75.2 °F - 59.0 °F 57% 30.15 in 6.2 mi NE 10.4 mph - N/A   Mostly Cloudy
9:30 PM 75.2 °F - 60.8 °F 61% 30.15 in 6.2 mi NE 12.7 mph - N/A   Mostly Cloudy
10:00 PM 75.2 °F - 60.8 °F 61% 30.15 in 6.2 mi NNE 11.5 mph - N/A   Scattered Clouds
10:30 PM 75.2 °F - 60.8 °F 61% 30.15 in 6.2 mi NE 8.1 mph - N/A   Scattered Clouds
11:00 PM 74 °F - 60 °F 53% 30.16 in - NE 8.1 mph - -  
11:00 PM 73.4 °F - 60.8 °F 65% 30.15 in 6.2 mi NE 8.1 mph - N/A   Mostly Cloudy
11:30 PM 73.4 °F - 60.8 °F 65% 30.12 in 6.2 mi NE 10.4 mph - N/A   Scattered Clouds